Provo, UT

4:10 AM MST on December 12, 2019 (GMT -0700)
Provo Municipal

Weather History for KPVU - November, 2019

Change the Weather History Date:

Wednesday, November 20, 2019

  Actual Average Record
Temperature  
Mean Temperature 45 °F -  
Max Temperature 48 °F 43 °F 63 °F (2016)
Min Temperature 42 °F 27 °F 16 °F (2018)
Degree Days  
Heating Degree Days 20    
Moisture  
Dew Point 40 °F    
Average Humidity 81    
Maximum Humidity 96    
Minimum Humidity 48    
Precipitation  
Precipitation 0.18 in - - ()
Sea Level Pressure  
Sea Level Pressure 29.61 in    
Wind  
Wind Speed 5 mph (NW)    
Max Wind Speed 10 mph    
Max Gust Speed -    
Visibility 9 miles    
Events Rain    
Averages and records for this station are not official NWS values.
T = Trace of Precipitation, MM = Missing Value Source: NWS Daily Summary

Daily Weather History Graph

Daily Weather History Graph

Search for Another Location

Airport or City:

Astronomy

Nov. 20, 2019 Rise Set
Actual Time 7:18 AM MST 5:06 PM MST
Civil Twilight 6:48 AM MST 5:35 PM MST
Nautical Twilight 6:15 AM MST 6:09 PM MST
Astronomical Twilight 5:43 AM MST 6:41 PM MST
Moon 12:07 AM MST (11/20) 2:05 PM MST (11/20)
Length of Visible Light 10h 47m
Length of Day
9h 48m
Last Quarter, 40% of the Moon is Illuminated
Nov 20
Last Quarter
Nov 26
New
Dec 3
First Quarter
Dec 11
Full
Dec 18
Last Quarter

Hourly Weather History & Observations

Time (MST) Temp. Windchill Dew Point Humidity Pressure Visibility Wind Dir Wind Speed Gust Speed Precip Events Conditions
12:56 AM 45.0 °F 41.2 °F 32.0 °F 60% 29.51 in 10.0 mi NNW 6.9 mph - N/A   Mostly Cloudy
1:56 AM 45.0 °F - 32.0 °F 60% 29.53 in 10.0 mi Calm Calm - N/A   Overcast
2:56 AM 48.0 °F - 28.9 °F 48% 29.54 in 10.0 mi North 5.8 mph - N/A   Overcast
3:56 AM 48.9 °F - 33.1 °F 54% 29.54 in 10.0 mi NW 5.8 mph - 0.00 in   Overcast
4:56 AM 48.0 °F - 42.1 °F 80% 29.52 in 10.0 mi Calm Calm - N/A   Overcast
5:56 AM 46.0 °F 42.5 °F 39.9 °F 79% 29.55 in 10.0 mi West 6.9 mph - 0.00 in Rain Light Rain
6:56 AM 45.0 °F - 41.0 °F 86% 29.57 in 4.0 mi Calm Calm - 0.06 in Rain Rain
7:56 AM 44.1 °F 41.5 °F 41.0 °F 89% 29.56 in 10.0 mi Variable 4.6 mph - 0.06 in Rain Light Rain
8:56 AM 44.1 °F 40.1 °F 42.1 °F 93% 29.58 in 6.0 mi NNW 6.9 mph - 0.01 in Rain Light Rain
9:56 AM 44.1 °F 40.1 °F 42.1 °F 93% 29.56 in 8.0 mi NW 6.9 mph - 0.01 in   Overcast
10:18 AM 44.6 °F 40.2 °F 42.8 °F 93% 29.62 in 10.0 mi NW 8.1 mph - N/A   Overcast
10:56 AM 44.1 °F 39.5 °F 43.0 °F 96% 29.58 in 10.0 mi WNW 8.1 mph - N/A   Overcast
12:56 PM 48.0 °F - 42.1 °F 80% 29.58 in 10.0 mi WNW 5.8 mph - N/A   Mostly Cloudy
1:56 PM 46.9 °F - 41.0 °F 80% 29.59 in 10.0 mi WNW 8.1 mph - N/A   Overcast
2:14 PM 46.4 °F 43.5 °F 41.0 °F 81% 29.63 in 10.0 mi WNW 5.8 mph - N/A   Overcast
2:40 PM 46.4 °F 43.5 °F 41.0 °F 81% 29.64 in 10.0 mi WNW 5.8 mph - N/A   Mostly Cloudy
2:56 PM 46.0 °F 44.8 °F 41.0 °F 83% 29.60 in 10.0 mi West 3.5 mph - N/A   Mostly Cloudy
3:56 PM 46.0 °F - 42.1 °F 86% 29.61 in 10.0 mi Calm Calm - 0.01 in Rain Light Rain
4:56 PM 45.0 °F 42.6 °F 42.1 °F 90% 29.63 in 7.0 mi NW 4.6 mph - 0.01 in Rain Light Rain
5:56 PM 45.0 °F 41.8 °F 42.1 °F 90% 29.66 in 10.0 mi NW 5.8 mph - 0.01 in Rain Light Rain
6:56 PM 44.1 °F 40.8 °F 39.9 °F 85% 29.68 in 10.0 mi North 5.8 mph - 0.00 in Rain Light Rain
7:56 PM 44.1 °F 40.8 °F 42.1 °F 93% 29.71 in 6.0 mi NNW 5.8 mph - 0.01 in Rain Light Rain
8:56 PM 43.0 °F 37.2 °F 39.0 °F 86% 29.70 in 10.0 mi NNW 10.4 mph - 0.00 in   Overcast
9:56 PM 43.0 °F 38.8 °F 39.0 °F 86% 29.71 in 10.0 mi North 6.9 mph - N/A   Overcast
10:56 PM 42.1 °F - 37.9 °F 85% 29.73 in 10.0 mi Calm Calm - N/A   Scattered Clouds
11:56 PM 43.0 °F 40.3 °F 37.0 °F 80% 29.71 in 10.0 mi NNE 4.6 mph - N/A   Overcast